Location: Gwatt
(46.7204°N, 7.6223°E)
Time: 09:30:58
(UTC+00:00)

Vanguard 2 Rocket - All Passes

Search period start: 24 January 2021 00:00
Search period end: 03 February 2021 00:00
Orbit: 554 x 3325 km, 32.9° (Epoch: 23 January)

Date Brightness Start Highest point End Pass type
(mag) Time Alt. Az. Time Alt. Az. Time Alt. Az.
24 Jan - 11:22:27 10° SSE 11:25:33 11° SE 11:28:26 10° SE daylight
24 Jan - 13:28:48 10° SSW 13:40:06 25° SSE 13:47:56 10° ESE daylight
24 Jan - 15:43:35 10° SW 15:54:03 32° S 16:00:35 10° ESE daylight
24 Jan - 18:00:06 10° WSW 18:06:43 24° SSW 18:11:17 10° SSE visible
25 Jan - 12:28:18 10° SSW 12:39:36 22° SSE 12:47:58 10° ESE daylight
25 Jan - 14:41:56 10° SW 14:54:01 33° S 15:01:37 10° ESE daylight
25 Jan - 16:58:24 10° WSW 17:07:20 30° SSW 17:13:00 10° SE visible
25 Jan - 19:16:20 10° WSW 19:19:07 13° SW 19:21:30 10° S visible
26 Jan - 11:28:40 10° S 11:38:56 18° SSE 11:47:10 10° ESE daylight
26 Jan - 13:40:25 10° SW 13:53:41 32° SSE 14:02:22 10° ESE daylight
26 Jan - 15:56:32 10° WSW 16:07:37 35° S 16:14:25 10° ESE daylight
26 Jan - 18:13:53 10° WSW 18:20:03 21° SSW 18:24:28 10° SSE visible
27 Jan - 10:30:39 10° SSE 10:38:12 14° SE 10:44:50 10° ESE daylight
27 Jan - 12:39:13 10° SSW 12:53:05 30° SSE 13:02:44 10° ESE daylight
27 Jan - 14:54:35 10° WSW 15:07:35 38° S 15:15:34 10° ESE daylight
27 Jan - 17:11:51 10° WSW 17:20:45 29° SSW 17:26:29 10° SE visible
28 Jan - 11:38:37 10° SSW 11:52:17 26° SSE 12:02:34 10° ESE daylight
28 Jan - 13:52:39 10° SW 14:07:13 38° S 14:16:26 10° ESE daylight
28 Jan - 16:09:44 10° WSW 16:21:06 36° SSW 16:28:04 10° SE daylight
28 Jan - 18:28:05 10° WSW 18:33:13 16° SW 18:37:07 10° S visible
29 Jan - 10:38:53 10° S 10:51:23 21° SSE 11:01:37 10° ESE daylight
29 Jan - 12:50:59 10° SW 13:06:31 37° SSE 13:16:59 10° ESE daylight
29 Jan - 15:07:31 10° WSW 15:21:06 40° S 15:29:20 10° ESE daylight
29 Jan - 17:25:32 10° WSW 17:34:00 25° SSW 17:39:40 10° SSE visible
30 Jan - 09:40:35 10° S 09:50:30 16° SE 09:59:19 10° ESE daylight
30 Jan - 11:49:47 10° SSW 12:05:35 33° SSE 12:17:06 10° ESE daylight
30 Jan - 14:05:19 10° WSW 14:20:42 43° S 14:30:18 10° ESE daylight
30 Jan - 16:23:08 10° WSW 16:34:27 33° SSW 16:41:31 10° SE daylight
30 Jan - 18:43:24 10° WSW 18:46:09 12° SW 18:48:33 10° SSW visible
31 Jan - 08:46:30 10° SE 08:49:43 11° SE 08:52:52 10° SE daylight
31 Jan - 10:49:15 10° SSW 11:04:32 29° SSE 11:16:39 10° E daylight
31 Jan - 13:03:19 10° SW 13:19:57 42° S 13:30:56 10° ESE daylight
31 Jan - 15:20:42 10° WSW 15:34:30 40° SSW 15:42:56 10° SE daylight
31 Jan - 17:39:32 10° WSW 17:47:04 20° SW 17:52:24 10° S visible
01 Feb - 09:49:38 10° S 10:03:27 24° SE 10:15:25 10° E daylight
01 Feb - 12:01:42 10° SW 12:18:54 40° SSE 12:31:12 10° ESE daylight
01 Feb - 14:18:17 10° WSW 14:34:07 45° S 14:44:00 10° ESE daylight
01 Feb - 16:36:44 10° W 16:47:38 29° SSW 16:54:41 10° SSE daylight
02 Feb - 08:51:24 10° S 09:02:30 18° SE 09:12:54 10° ESE daylight
02 Feb - 11:00:39 10° SW 11:17:41 36° SSE 11:31:01 10° E daylight
02 Feb - 13:16:02 10° WSW 13:33:20 46° S 13:44:43 10° ESE daylight
02 Feb - 15:34:04 10° W 15:47:46 38° SSW 15:56:20 10° SE daylight
02 Feb - 17:54:13 10° WSW 17:59:54 15° SW 18:04:20 10° SSW visible
